Dover AFB, DE

7:47 PM EDT on May 27, 2017 (GMT -0400)
Dover Air Force Base

Weather History for KDOV - January, 2013

Change the Weather History Date:

Wednesday, January 16, 2013

  Actual Average Record
Temperature  
Mean Temperature 38 °F -  
Max Temperature 41 °F 42 °F 69 °F (1953)
Min Temperature 35 °F 23 °F 5 °F (1972)
Degree Days  
Heating Degree Days 27    
Moisture  
Dew Point 37 °F    
Average Humidity 99    
Maximum Humidity 100    
Minimum Humidity 93    
Precipitation  
Precipitation 0.49 in - - ()
Sea Level Pressure  
Sea Level Pressure 30.03 in    
Wind  
Wind Speed 10 mph (North)    
Max Wind Speed 17 mph    
Max Gust Speed 30 mph    
Visibility 8 miles    
Events Rain    
Averages and records for this station are not official NWS values.
T = Trace of Precipitation, MM = Missing Value Source: NWS Daily Summary

Daily Weather History Graph

Daily Weather History Graph

Search for Another Location

Airport or City:

Trip Planner

Search our weather history database for the weather conditions in past years. The results will help you decide how hot, cold, wet, or windy it might be!

Date:

Astronomy

Jan. 16, 2013 Rise Set
Actual Time 7:19 AM EST 5:04 PM EST
Civil Twilight 6:49 AM EST 5:34 PM EST
Nautical Twilight 6:16 AM EST 6:06 PM EST
Astronomical Twilight 5:44 AM EST 6:38 PM EST
Moon 9:57 AM EST (1/16) 10:50 PM EST (1/16)
Length of Visible Light 10h 44m
Length of Day
9h 45m
Waxing Crescent, 28% of the Moon is Illuminated
Jan 16
Waxing Crescent
Jan 18
First Quarter
Jan 26
Full
Feb 3
Last Quarter
Feb 10
New

Hourly Weather History & Observations

Time (EST) Temp. Windchill Dew Point Humidity Pressure Visibility Wind Dir Wind Speed Gust Speed Precip Events Conditions
12:09 AM 35.6 °F 27.5 °F 35.6 °F 100% 30.16 in 6.0 mi NNE 11.5 mph - N/A Rain Light Rain
12:14 AM 35.6 °F 27.5 °F 35.6 °F 100% 30.15 in 6.0 mi NNE 11.5 mph - N/A Rain Light Rain
12:25 AM 35.6 °F 27.5 °F 35.6 °F 100% 30.15 in 6.0 mi North 11.5 mph - N/A Rain Light Rain
12:28 AM 35.6 °F 28.0 °F 35.6 °F 100% 30.15 in 6.0 mi North 10.4 mph - N/A Rain Light Rain
12:33 AM 35.6 °F 27.5 °F 35.6 °F 100% 30.15 in 7.0 mi NNE 11.5 mph - N/A Rain Light Rain
12:36 AM 35.6 °F 28.6 °F 35.6 °F 100% 30.15 in 7.0 mi North 9.2 mph - N/A Rain Light Rain
12:48 AM 35.6 °F 28.0 °F 35.6 °F 100% 30.14 in 6.0 mi NNE 10.4 mph - N/A Rain Light Rain
12:55 AM 35.8 °F 27.3 °F 35.4 °F 99% 30.13 in 4.0 mi NNE 12.7 mph - 0.04 in Rain Light Rain
1:05 AM 35.6 °F 27.1 °F 35.6 °F 100% 30.12 in 4.0 mi NNE 12.7 mph - N/A   Overcast
1:21 AM 35.6 °F 28.6 °F 35.6 °F 100% 30.12 in 3.0 mi NNE 9.2 mph - N/A Rain Rain
1:34 AM 35.6 °F 28.0 °F 35.6 °F 100% 30.11 in 3.0 mi NE 10.4 mph - N/A Rain Light Rain
1:40 AM 35.6 °F 29.2 °F 35.6 °F 100% 30.12 in 4.0 mi NNE 8.1 mph - N/A Rain Light Rain
1:49 AM 35.6 °F 27.5 °F 35.6 °F 100% 30.10 in 4.0 mi NE 11.5 mph - N/A Rain Light Rain
1:55 AM 36.0 °F 28.5 °F 35.8 °F 99% 30.10 in 4.0 mi NNE 10.4 mph - 0.06 in Rain Light Rain
1:58 AM 35.6 °F 28.0 °F 35.6 °F 100% 30.10 in 4.0 mi NE 10.4 mph - N/A Rain Light Rain
1:59 AM 35.6 °F 28.0 °F 35.6 °F 100% 30.11 in 4.0 mi NNE 10.4 mph - N/A Rain Light Rain
2:15 AM 35.6 °F 28.6 °F 35.6 °F 100% 30.11 in 3.0 mi NNE 9.2 mph - N/A Rain Heavy Rain
2:18 AM 35.6 °F 28.6 °F 35.6 °F 100% 30.12 in 2.5 mi NNE 9.2 mph - N/A Rain Heavy Rain
2:26 AM 35.6 °F 27.5 °F 35.6 °F 100% 30.11 in 3.0 mi North 11.5 mph - N/A Rain Rain
2:29 AM 35.6 °F 27.5 °F 35.6 °F 100% 30.11 in 2.5 mi North 11.5 mph - N/A Rain Heavy Rain
2:32 AM 35.6 °F 28.0 °F 35.6 °F 100% 30.10 in 2.5 mi North 10.4 mph - N/A Rain Heavy Rain
2:33 AM 35.6 °F 27.5 °F 35.6 °F 100% 30.10 in 2.5 mi North 11.5 mph - N/A Rain Rain
2:36 AM 35.6 °F 27.5 °F 35.6 °F 100% 30.09 in 2.5 mi NNE 11.5 mph - N/A Rain Rain
2:37 AM 35.6 °F 27.5 °F 35.6 °F 100% 30.10 in 3.0 mi North 11.5 mph - N/A Rain Rain
2:39 AM 35.6 °F 28.0 °F 35.6 °F 100% 30.10 in 3.0 mi North 10.4 mph - N/A Rain Rain
2:47 AM 35.6 °F 27.5 °F 35.6 °F 100% 30.09 in 2.5 mi NNE 11.5 mph - N/A Rain Rain
2:49 AM 35.6 °F 28.0 °F 35.6 °F 100% 30.08 in 2.5 mi NNE 10.4 mph - N/A Rain Rain
2:55 AM 35.6 °F 28.0 °F 35.4 °F 99% 30.07 in 2.5 mi NNE 10.4 mph - 0.16 in Rain Rain
2:58 AM 35.6 °F 28.0 °F 35.6 °F 100% 30.08 in 2.5 mi NNE 10.4 mph - N/A Rain Rain
3:01 AM 35.6 °F 28.0 °F 35.6 °F 100% 30.08 in 3.0 mi NNE 10.4 mph - N/A Rain Rain
3:17 AM 35.6 °F 28.0 °F 35.6 °F 100% 30.08 in 3.0 mi North 10.4 mph - N/A Rain Heavy Rain
3:25 AM 35.6 °F 27.5 °F 35.6 °F 100% 30.09 in 4.0 mi North 11.5 mph - N/A Rain Light Rain
3:32 AM 35.6 °F 27.5 °F 35.6 °F 100% 30.09 in 4.0 mi North 11.5 mph - N/A Rain Light Rain
3:35 AM 35.6 °F 27.1 °F 35.6 °F 100% 30.09 in 4.0 mi North 12.7 mph - N/A   Overcast
3:38 AM 35.6 °F 27.1 °F 35.6 °F 100% 30.10 in 4.0 mi North 12.7 mph - N/A   Overcast
3:55 AM 35.6 °F 27.5 °F 35.6 °F 100% 30.09 in 7.0 mi North 11.5 mph - 0.10 in   Overcast
4:08 AM 35.6 °F 27.5 °F 35.6 °F 100% 30.10 in 7.0 mi North 11.5 mph - N/A   Overcast
4:26 AM 35.6 °F 28.0 °F 35.6 °F 100% 30.09 in 7.0 mi North 10.4 mph - N/A   Overcast
4:29 AM 35.6 °F 26.2 °F 35.6 °F 100% 30.09 in 8.0 mi NNW 15.0 mph - N/A   Overcast
4:35 AM 35.6 °F 26.6 °F 35.6 °F 100% 30.07 in 9.0 mi North 13.8 mph - N/A   Overcast
4:36 AM 35.6 °F 26.2 °F 35.6 °F 100% 30.07 in 9.0 mi North 15.0 mph - N/A   Overcast
4:42 AM 35.6 °F 26.6 °F 35.6 °F 100% 30.08 in 6.0 mi North 13.8 mph - N/A Rain Rain
4:50 AM 35.6 °F 26.6 °F 35.6 °F 100% 30.07 in 7.0 mi North 13.8 mph - N/A   Overcast
4:55 AM 35.4 °F 26.8 °F 35.4 °F 100% 30.06 in 7.0 mi North 12.7 mph - 0.08 in Rain Light Rain
4:56 AM 35.6 °F 27.5 °F 35.6 °F 100% 30.06 in 7.0 mi North 11.5 mph - N/A Rain Light Rain
5:11 AM 35.6 °F 27.5 °F 35.6 °F 100% 30.05 in 10.0 mi North 11.5 mph - N/A   Mostly Cloudy
5:12 AM 35.6 °F 27.5 °F 35.6 °F 100% 30.05 in 10.0 mi North 11.5 mph - N/A   Overcast
5:16 AM 35.6 °F 27.1 °F 35.6 °F 100% 30.05 in 10.0 mi North 12.7 mph - N/A   Overcast
5:19 AM 35.6 °F 27.5 °F 35.6 °F 100% 30.05 in 10.0 mi North 11.5 mph - N/A   Mostly Cloudy
5:28 AM 35.6 °F 27.1 °F 35.6 °F 100% 30.03 in 10.0 mi NNE 12.7 mph - N/A   Overcast
5:48 AM 35.6 °F 28.6 °F 35.6 °F 100% 30.03 in 10.0 mi NE 9.2 mph - N/A   Overcast
5:49 AM 35.6 °F 28.6 °F 35.6 °F 100% 30.03 in 10.0 mi NNE 9.2 mph - N/A   Overcast
5:53 AM 35.6 °F 28.6 °F 35.6 °F 100% 30.03 in 10.0 mi NNE 9.2 mph - N/A   Overcast
5:55 AM 35.8 °F 29.4 °F 35.4 °F 99% 30.03 in 10.0 mi NNE 8.1 mph - 0.00 in   Overcast
5:56 AM 35.6 °F 29.2 °F 35.6 °F 100% 30.03 in 10.0 mi NNE 8.1 mph - N/A   Overcast
6:01 AM 35.6 °F 28.0 °F 35.6 °F 100% 30.03 in 10.0 mi NNE 10.4 mph - N/A   Overcast
6:03 AM 35.6 °F 27.5 °F 35.6 °F 100% 30.03 in 10.0 mi NNE 11.5 mph - N/A   Overcast
6:21 AM 35.6 °F 28.0 °F 35.6 °F 100% 30.04 in 10.0 mi NNE 10.4 mph - N/A   Overcast
6:55 AM 36.7 °F 29.9 °F 36.5 °F 99% 30.05 in 10.0 mi NNE 9.2 mph - N/A   Overcast
7:26 AM 37.4 °F 32.1 °F 35.6 °F 93% 30.04 in 10.0 mi NNE 6.9 mph - N/A   Overcast
7:55 AM 36.9 °F 31.4 °F 36.5 °F 99% 30.02 in 10.0 mi ENE 6.9 mph - 0.00 in Rain Light Rain
8:28 AM 37.4 °F 32.1 °F 37.4 °F 100% 30.03 in 10.0 mi ENE 6.9 mph - N/A Rain Light Rain
8:35 AM 37.4 °F 33.8 °F 37.4 °F 100% 30.03 in 10.0 mi NE 4.6 mph - N/A Rain Light Rain
8:55 AM 37.6 °F 33.1 °F 37.4 °F 99% 30.01 in 10.0 mi ENE 5.8 mph - 0.00 in   Light Drizzle
8:57 AM 37.4 °F 32.8 °F 37.4 °F 100% 30.01 in 10.0 mi ENE 5.8 mph - N/A   Overcast
9:11 AM 37.4 °F 34.9 °F 37.4 °F 100% 30.02 in 10.0 mi East 3.5 mph - N/A   Light Drizzle
9:20 AM 37.4 °F 34.9 °F 37.4 °F 100% 30.02 in 10.0 mi ENE 3.5 mph - N/A   Overcast
9:23 AM 37.4 °F 34.9 °F 37.4 °F 100% 30.02 in 10.0 mi ENE 3.5 mph - N/A Rain Light Rain
9:33 AM 37.4 °F 33.8 °F 37.4 °F 100% 30.01 in 10.0 mi ENE 4.6 mph - N/A   Overcast
9:34 AM 37.4 °F 33.8 °F 37.4 °F 100% 30.01 in 10.0 mi ENE 4.6 mph - N/A Rain Light Rain
9:55 AM 37.9 °F - 37.8 °F 99% 30.03 in 9.0 mi Calm Calm - 0.00 in Rain Light Rain
9:57 AM 37.4 °F - 37.4 °F 100% 30.02 in 8.0 mi Calm Calm - N/A Rain Light Rain
10:13 AM 37.4 °F - 37.4 °F 100% 30.01 in 10.0 mi Calm Calm - N/A Rain Light Rain
10:33 AM 39.2 °F 37.0 °F 37.4 °F 93% 30.00 in 10.0 mi South 3.5 mph - N/A Rain Light Rain
10:43 AM 39.2 °F 37.0 °F 37.4 °F 93% 30.00 in 10.0 mi South 3.5 mph - N/A Rain Light Rain
10:50 AM 39.2 °F 35.9 °F 37.4 °F 93% 29.99 in 10.0 mi South 4.6 mph - N/A Rain Light Rain
10:55 AM 38.7 °F 33.6 °F 38.5 °F 99% 29.99 in 10.0 mi SSW 6.9 mph - 0.02 in Rain Light Rain
11:45 AM 39.2 °F 35.0 °F 39.2 °F 100% 29.98 in 10.0 mi Variable 5.8 mph - N/A   Overcast
11:55 AM 39.4 °F 34.5 °F 39.2 °F 99% 29.96 in 10.0 mi SW 6.9 mph - 0.00 in   Overcast
12:02 PM 39.2 °F 35.9 °F 39.2 °F 100% 29.94 in 10.0 mi SSW 4.6 mph - N/A   Overcast
12:03 PM 39.2 °F 35.9 °F 39.2 °F 100% 29.94 in 10.0 mi SW 4.6 mph - N/A Rain Light Rain
12:16 PM 39.2 °F 33.0 °F 39.2 °F 100% 29.95 in 10.0 mi WSW 9.2 mph - N/A   Overcast
12:55 PM 39.9 °F 33.9 °F 39.7 °F 99% 29.88 in 10.0 mi SSE 9.2 mph - 0.00 in   Overcast
1:55 PM 40.5 °F 31.8 °F 40.3 °F 99% 29.85 in 10.0 mi South 17.3 mph - N/A   Overcast
2:32 PM 41.0 °F 33.9 °F 41.0 °F 100% 29.85 in 10.0 mi SSW 12.7 mph 29.9 mph N/A   Overcast
2:33 PM 41.0 °F 33.5 °F 41.0 °F 100% 29.86 in 10.0 mi West 13.8 mph 29.9 mph N/A   Overcast
2:55 PM 41.7 °F 38.8 °F 41.5 °F 99% 29.92 in 10.0 mi West 4.6 mph 24.2 mph N/A   Overcast
3:01 PM 41.0 °F 37.1 °F 41.0 °F 100% 29.92 in 10.0 mi West 5.8 mph - N/A   Overcast
3:17 PM 41.0 °F 35.8 °F 41.0 °F 100% 29.88 in 10.0 mi South 8.1 mph - N/A Rain Light Rain
3:55 PM 41.4 °F 35.7 °F 41.2 °F 99% 29.94 in 10.0 mi West 9.2 mph 17.3 mph 0.00 in Rain Light Rain
3:58 PM 41.0 °F 34.7 °F 41.0 °F 100% 29.94 in 10.0 mi West 10.4 mph - N/A Rain Light Rain
4:20 PM 41.0 °F 34.3 °F 41.0 °F 100% 29.95 in 10.0 mi WNW 11.5 mph - N/A Rain Light Rain
4:25 PM 41.0 °F 33.9 °F 41.0 °F 100% 29.96 in 10.0 mi WNW 12.7 mph - N/A Rain Light Rain
4:55 PM 40.3 °F 37.1 °F 40.1 °F 99% 29.93 in 8.0 mi WNW 4.6 mph - 0.02 in Rain Light Rain
5:20 PM 41.0 °F 38.0 °F 39.2 °F 93% 29.96 in 10.0 mi SW 4.6 mph - N/A Rain Light Rain
5:40 PM 41.0 °F 38.0 °F 41.0 °F 100% 29.93 in 10.0 mi South 4.6 mph - N/A Rain Light Rain
5:42 PM 41.0 °F 38.0 °F 41.0 °F 100% 29.94 in 10.0 mi South 4.6 mph - N/A Rain Light Rain
5:46 PM 41.0 °F 37.1 °F 41.0 °F 100% 29.94 in 10.0 mi SSW 5.8 mph - N/A   Light Drizzle
5:48 PM 41.0 °F 36.4 °F 41.0 °F 100% 29.95 in 10.0 mi SSW 6.9 mph - N/A   Overcast
5:55 PM 40.6 °F 36.0 °F 40.3 °F 99% 29.97 in 10.0 mi SW 6.9 mph - 0.00 in   Overcast
6:10 PM 41.0 °F 37.1 °F 41.0 °F 100% 29.95 in 10.0 mi WSW 5.8 mph - N/A Rain Light Rain
6:25 PM 41.0 °F 36.4 °F 41.0 °F 100% 29.98 in 10.0 mi West 6.9 mph - N/A   Overcast
6:54 PM 41.0 °F 35.2 °F 41.0 °F 100% 29.99 in 10.0 mi West 9.2 mph - N/A   Overcast
6:55 PM 40.8 °F 35.6 °F 40.6 °F 99% 29.99 in 10.0 mi West 8.1 mph - 0.00 in   Overcast
7:55 PM 40.6 °F 37.5 °F 40.5 °F 99% 29.97 in 10.0 mi WSW 4.6 mph - N/A   Overcast
8:55 PM 40.8 °F 36.9 °F 40.5 °F 99% 29.98 in 10.0 mi WSW 5.8 mph - N/A   Overcast
9:55 PM 41.0 °F 38.0 °F 40.8 °F 99% 29.97 in 10.0 mi SSW 4.6 mph - N/A   Overcast
10:38 PM 41.0 °F - 41.0 °F 100% 29.98 in 10.0 mi Calm Calm - N/A   Overcast
10:55 PM 41.2 °F 39.2 °F 41.0 °F 99% 29.98 in 10.0 mi West 3.5 mph - 0.00 in Rain Light Rain
11:55 PM 41.2 °F 39.2 °F 41.2 °F 100% 29.99 in 10.0 mi SW 3.5 mph - 0.01 in Rain Light Rain